Temperature
15 15 16 16 13 12 14 15 17 19 19 20 19 18 17 16 18 17 16 16 16 16 16 16 16 17 17 17 17 17 17 17 17 17 17 17 16 16 16 16 16 16 16 16 16 16 16 16 16
15 15 16 15 12 13 14 15 17 18 20 20 19 18 16 16 16 16 16 16 16 16 16 16 16 17 17 17 17 17 16 16 16 16 16 16 16 16 16 16 16 16 16 16 16 16 16 16 16
14 15 15 12 12 13 16 17 17 19 20 20 18 17 16 16 16 16 16 16 16 16 16 16 16 16 16 16 16 16 16 16 16 16 16 16 16 16 16 16 16 16 16 16 16 16 16 16 15
14 15 14 12 13 14 16 17 17 18 20 19 18 16 16 16 16 16 16 16 16 16 16 16 16 16 16 16 16 16 16 16 16 16 16 16 16 16 16 16 16 16 15 15 15 15 15 15 15
14 14 12 12 13 14 15 17 18 18 18 18 17 14 15 16 16 16 16 16 16 16 16 16 16 16 16 16 16 16 16 16 16 16 16 16 16 16 16 16 15 15 15 15 15 15 15 15 15
14 12 11 12 14 15 16 18 18 17 18 18 17 14 15 15 16 16 16 16 16 16 16 16 16 16 16 16 16 16 16 16 16 16 16 16 16 16 16 15 15 15 15 15 15 15 15 15 15
13 11 12 13 14 15 17 19 18 17 17 18 18 14 14 15 15 15 15 15 15 15 15 15 15 15 15 16 16 16 16 16 15 15 15 15 15 15 15 15 15 15 15 15 15 15 15 15 15
14 11 13 14 15 16 17 19 19 18 18 18 18 15 14 15 15 15 15 15 15 15 15 15 15 15 15 15 15 15 15 15 15 15 15 15 15 15 15 15 15 15 15 14 14 14 14 14 14
14 11 12 14 15 16 17 17 18 19 18 17 17 17 17 15 15 15 14 14 14 14 15 15 15 15 15 15 15 15 15 15 15 15 15 15 15 15 15 15 14 14 14 14 14 14 14 14 13
13 11 13 15 15 16 17 17 18 18 16 16 16 17 16 15 15 15 15 14 14 14 14 14 15 15 15 15 15 15 15 15 15 15 15 14 14 14 14 14 14 14 14 14 14 13 13 13 13
12 12 13 15 16 16 16 17 17 17 16 16 16 16 15 15 15 15 15 15 15 15 14 14 14 14 14 15 15 15 15 15 14 14 14 14 14 14 14 14 14 14 13 13 13 13 13 13 13
12 13 14 15 16 16 16 16 16 17 17 18 18 17 16 15 15 15 15 15 14 14 14 14 14 14 14 14 14 14 14 14 14 14 14 14 14 14 14 13 13 13 13 13 13 13 13 12 12
12 13 14 15 15 16 16 15 15 16 17 17 17 16 16 15 15 15 15 14 14 14 14 14 14 14 14 14 14 14 14 14 14 14 14 13 13 13 13 13 13 13 13 12 12 12 12 12 12
12 13 14 14 15 15 15 14 15 15 16 16 16 15 15 15 15 15 14 14 14 14 14 14 14 14 14 14 14 14 13 13 13 13 13 13 13 13 13 13 12 12 12 12 12 12 12 12 12
13 12 12 13 14 14 14 13 13 15 15 15 15 15 15 15 15 15 15 14 14 14 14 13 13 13 13 13 13 13 13 13 13 13 13 13 12 12 12 12 12 12 12 12 11 11 11 11 11
12 11 11 12 12 13 13 12 13 15 14 14 14 14 14 15 15 15 15 15 14 14 13 13 13 13 13 13 13 13 13 13 12 12 12 12 12 12 12 12 12 11 11 11 11 11 11 11 11
10 10 10 11 12 12 12 12 12 14 14 13 14 14 14 14 14 14 14 14 14 14 13 13 13 13 13 13 13 12 12 12 12 12 12 12 12 12 11 11 11 11 11 11 11 11 10 10 10
9 9 10 10 11 11 11 11 12 13 13 13 13 13 14 14 14 14 14 14 14 14 13 13 13 13 12 12 12 12 12 12 11 11 11 11 11 11 11 11 11 10 10 10 10 10 10 10 10
10 10 10 11 11 11 11 11 11 12 12 11 12 12 13 13 14 14 14 14 13 13 13 13 12 12 12 12 12 12 12 11 11 11 11 11 11 10 10 10 10 10 10 10 10 9 9 9 9
10 10 10 11 11 11 10 10 10 10 10 11 11 12 13 13 13 13 13 13 13 13 13 12 12 12 12 12 12 12 11 11 11 11 10 10 10 10 10 10 10 9 9 9 9 9 8 8 8
9 9 9 10 11 11 11 10 10 10 11 11 12 12 13 13 13 13 13 13 13 13 13 12 12 12 12 11 11 11 11 10 10 10 10 10 10 9 9 9 9 9 9 9 8 8 8 7 7
9 10 10 10 9 8 9 8 9 9 9 9 10 11 12 12 13 13 13 12 12 12 12 12 12 11 11 11 11 11 11 10 10 10 10 9 9 9 9 9 8 8 8 8 8 7 7 7 6
9 10 10 9 8 8 8 8 8 8 9 9 9 10 11 12 12 12 12 12 12 12 12 12 11 11 11 11 11 10 10 10 10 10 9 9 9 9 8 8 8 8 7 7 7 7 6 6 6
10 9 8 7 7 7 7 7 8 7 9 9 9 10 11 11 12 12 12 12 12 12 11 11 11 11 11 10 10 10 10 10 9 9 9 9 8 8 8 8 7 7 7 7 6 6 6 6 5
9 7 6 6 6 6 7 7 8 8 8 9 8 9 10 11 11 11 11 11 11 11 11 11 11 10 10 10 10 9 9 9 9 9 8 8 8 8 8 7 7 7 7 6 6 6 6 5 5
8 7 6 6 6 6 7 7 7 8 8 9 9 10 10 10 10 10 11 11 11 11 10 10 10 10 10 9 9 9 9 8 8 8 8 7 7 7 7 7 6 6 6 6 6 5 5 5 4
7 7 7 6 5 6 6 6 7 8 7 7 8 8 9 9 10 10 10 10 10 10 10 10 10 10 9 9 9 8 8 8 8 7 7 7 7 7 6 6 6 6 6 5 5 5 5 4 4
8 7 6 5 6 7 7 7 7 7 7 7 7 7 8 9 9 9 9 9 9 10 10 9 9 9 9 8 8 8 7 7 7 7 7 6 6 6 6 6 5 5 5 5 5 4 4 4 4
7 7 6 5 5 6 6 7 7 7 6 6 6 7 7 8 8 9 9 9 9 9 9 9 8 8 8 8 7 7 7 7 7 6 6 6 6 6 5 5 5 5 5 4 4 4 4 3 3
6 6 5 5 5 4 5 6 7 6 5 5 6 6 7 7 8 8 8 8 8 8 8 8 8 7 7 7 7 6 6 6 6 6 6 6 5 5 5 5 5 4 4 4 3 3 3 3 3
Wind_Speed
1 3 3 4 5 4 4 6 4 2 2 1 3 8 9 6 4 6 4 9 11 10 12 15 16 16 16 15 15 15 15 14 14 14 14 13 13 12 12 12 11 11 11 11 11 11 10 10 10
2 2 4 5 5 3 6 6 6 5 4 5 5 7 7 5 4 8 6 10 13 12 13 14 17 17 16 16 16 15 15 14 14 14 13 13 12 12 12 12 11 11 11 11 10 10 10 9 9
2 2 4 4 5 7 6 5 7 3 2 3 5 6 6 6 5 5 7 12 12 11 13 15 17 17 16 16 15 15 15 14 14 14 13 13 12 12 12 12 11 11 11 11 11 10 10 9 9
3 3 4 3 6 7 6 4 4 3 2 4 6 6 4 1 5 7 12 13 12 9 12 15 17 17 16 16 15 15 15 15 14 14 13 13 12 12 12 11 11 11 11 10 10 10 9 9 9
3 4 3 2 6 6 6 6 3 2 2 3 6 7 3 4 9 14 13 14 13 9 11 15 17 17 16 16 15 15 15 14 14 13 13 12 12 12 11 11 11 11 10 10 10 10 10 9 9
3 4 4 5 6 5 6 6 3 2 3 4 7 7 3 3 10 12 13 12 12 11 11 14 16 16 16 16 15 15 14 14 13 13 12 12 12 11 11 10 10 10 10 9 9 9 9 9 9
4 5 5 6 4 5 6 4 5 6 4 5 8 8 4 4 8 11 12 11 10 10 10 10 13 14 15 15 15 14 14 13 13 12 12 12 11 11 10 10 10 9 9 9 8 8 9 9 9
5 4 4 4 5 6 4 3 3 7 5 4 7 10 8 8 10 12 12 11 10 9 8 9 10 12 12 13 13 13 13 13 12 12 12 11 10 10 10 9 9 8 8 8 8 8 8 8 8
4 3 5 6 6 5 2 2 1 2 7 4 3 6 8 14 14 14 11 9 8 8 7 7 8 10 11 11 11 12 12 12 11 11 11 10 9 8 8 9 8 8 8 8 8 8 8 8 8
4 5 8 4 4 3 1 2 2 3 4 4 5 5 11 15 16 16 14 12 10 9 7 6 7 8 8 9 9 9 9 10 10 10 10 9 8 8 8 8 8 8 8 7 7 7 7 7 7
6 7 5 3 2 1 0 0 1 6 3 6 10 13 15 14 14 14 13 12 11 10 9 7 7 8 8 7 8 7 8 8 9 9 9 9 8 7 7 7 7 8 8 7 7 7 6 6 5
6 6 5 3 1 1 0 0 2 2 5 6 13 19 16 16 15 15 14 12 10 10 9 8 7 7 7 8 6 7 6 6 6 7 8 8 6 5 5 5 6 6 6 6 6 5 5 5 5
7 4 4 4 2 1 0 1 1 2 2 6 11 14 16 15 13 11 11 11 11 10 9 8 8 8 7 6 5 6 5 6 6 6 7 7 5 3 4 4 5 5 5 5 4 4 4 4 4
7 5 4 4 4 2 3 3 2 4 5 8 12 13 13 14 13 10 11 11 11 11 10 9 9 8 8 6 5 5 6 6 6 6 6 7 7 5 4 3 3 4 4 4 3 3 2 2 2
3 3 4 5 5 4 3 5 7 7 7 8 10 12 12 11 11 13 13 13 13 12 10 10 9 8 8 7 6 6 6 7 5 5 6 7 7 6 4 2 2 2 3 4 4 4 3 2 3
3 3 5 6 6 5 7 9 8 6 10 10 9 9 10 10 11 11 12 11 12 12 11 10 10 9 8 6 6 5 6 6 5 6 6 6 6 5 4 2 1 3 4 3 2 2 2 3 3
3 6 7 5 6 6 8 8 7 5 10 10 9 9 9 9 9 9 11 12 12 13 12 10 9 9 8 7 6 5 5 5 5 5 5 5 5 5 4 2 2 3 3 2 2 2 2 3 4
8 7 6 8 5 7 8 9 7 5 8 9 9 9 9 10 10 9 10 10 11 11 11 11 9 9 8 6 5 4 4 3 4 4 4 5 4 4 4 3 2 3 2 2 2 2 2 2 4
7 7 6 6 5 6 10 11 10 7 6 7 8 9 10 10 8 8 9 10 10 10 10 11 10 9 8 6 5 4 3 2 1 2 4 4 4 4 4 2 2 2 1 1 2 2 3 3 3
5 5 4 3 2 4 6 9 8 7 8 10 11 11 11 8 6 8 9 10 11 12 11 11 11 10 8 6 5 3 3 2 1 1 2 3 3 3 2 2 1 1 1 2 2 2 2 3 3
8 8 7 4 1 1 1 5 7 6 6 7 8 9 10 12 12 11 10 10 10 11 12 11 10 10 8 7 5 4 3 3 2 1 0 1 2 2 2 1 1 1 0 1 2 1 1 2 3
9 8 7 6 4 3 3 4 7 6 5 7 8 8 9 10 11 11 11 11 11 11 10 10 10 9 8 8 8 8 5 3 2 2 1 1 1 1 1 1 1 0 1 1 2 2 1 1 3
6 5 6 5 5 2 2 4 7 3 6 8 8 9 8 9 11 12 12 13 11 10 10 9 9 8 7 7 8 7 4 2 1 1 1 0 1 1 0 0 0 1 1 2 2 2 2 2 3
5 5 5 4 3 4 8 7 7 6 9 7 7 7 8 8 9 9 9 9 8 8 8 9 9 7 7 7 7 7 6 4 3 2 1 0 1 1 1 1 1 1 1 2 3 3 3 3 3
6 7 3 1 2 7 5 6 8 6 6 8 9 8 7 7 8 8 9 10 9 9 9 9 10 8 7 7 6 6 6 6 6 4 3 2 1 2 2 2 2 2 2 3 3 3 3 3 4
8 10 8 7 7 4 3 7 6 5 3 4 5 6 7 6 7 8 9 10 10 11 10 10 10 8 7 7 5 4 5 4 3 3 3 3 2 2 2 2 2 2 3 3 3 3 4 4 4
8 7 6 5 3 2 5 5 5 1 1 2 4 5 6 7 7 7 8 9 10 10 10 10 10 8 7 6 5 4 4 3 3 3 2 2 2 2 2 2 2 3 3 3 3 3 4 4 4
6 8 5 5 6 5 4 5 5 5 5 4 4 5 5 5 6 6 7 7 8 8 8 8 8 8 7 6 5 4 3 3 3 2 2 2 2 2 2 2 2 3 3 3 3 4 4 5 5
5 5 5 5 5 6 4 6 4 6 6 6 5 5 6 6 6 6 6 6 7 7 7 7 7 6 5 5 4 3 2 2 2 2 3 2 2 2 3 3 3 3 4 4 3 4 5 5 6
4 6 6 6 5 4 4 4 3 1 2 4 5 4 5 5 5 5 6 7 6 6 6 6 5 5 5 4 4 3 2 2 1 2 2 2 3 3 3 3 3 4 4 4 4 5 6 6 7
Wind_Direction
283 36 78 62 65 66 232 241 229 229 166 138 93 102 108 106 135 149 137 136 132 134 133 129 125 122 118 114 111 107 105 103 102 101 100 97 96 94 92 91 88 84 81 80 77 74 72 68 65
69 72 66 69 108 170 250 243 226 222 187 150 97 90 85 81 84 111 127 137 131 129 129 128 125 122 119 116 113 109 106 104 103 102 100 98 96 94 91 87 85 82 80 78 75 72 71 69 65
80 106 96 97 154 190 222 233 212 218 200 146 89 66 96 120 123 132 143 135 121 120 124 127 124 122 120 117 114 111 108 105 103 102 99 97 94 91 89 87 84 81 79 76 72 68 66 65 62
89 76 71 113 215 222 219 232 186 152 82 68 105 74 63 69 147 135 135 129 120 116 121 125 124 122 120 117 115 111 109 107 104 101 97 94 92 91 88 87 84 81 79 75 71 67 64 62 59
75 98 116 208 234 244 234 236 216 156 129 91 103 99 56 358 112 124 131 128 125 121 119 123 122 121 120 118 115 113 111 109 106 103 99 95 92 91 90 86 83 80 77 74 71 67 65 61 58
89 96 137 211 235 249 248 231 182 157 144 119 109 111 110 107 122 130 130 128 128 125 119 122 122 120 118 118 116 114 112 110 107 105 101 96 93 91 88 86 85 82 77 74 70 68 64 59 55
134 136 181 203 220 241 240 211 172 164 157 164 135 118 136 158 142 131 126 124 122 119 115 113 117 118 118 117 115 114 112 110 106 103 100 96 92 89 87 84 82 80 75 71 68 65 61 56 52
155 140 198 211 204 229 227 171 174 158 161 139 124 138 169 182 144 124 119 119 119 116 115 111 111 113 113 115 115 114 111 109 106 103 99 95 90 86 82 78 76 74 71 67 64 61 57 52 49
134 125 205 208 199 222 225 143 47 115 112 84 95 161 165 146 133 125 122 121 127 127 124 120 115 113 114 115 115 111 109 107 105 103 100 93 86 82 75 71 70 68 65 63 59 56 55 50 46
144 185 215 217 203 209 197 136 150 96 91 83 64 85 125 139 140 142 146 149 149 150 146 138 129 125 120 115 108 104 104 103 102 101 100 94 88 82 74 68 64 61 57 55 51 49 48 43 38
178 199 220 262 266 222 106 51 49 128 154 174 158 148 145 147 148 152 156 157 158 156 152 149 141 131 122 114 112 106 104 101 101 102 101 95 86 80 72 64 54 50 47 44 34 34 33 34 30
194 222 214 249 296 87 165 102 56 166 196 181 163 155 154 158 162 163 163 160 156 154 155 153 143 133 127 123 118 116 110 105 102 103 104 97 85 75 68 62 54 49 46 42 33 29 24 24 19
221 231 226 244 275 217 121 196 160 246 204 141 143 153 162 166 167 166 159 155 154 156 157 155 147 140 134 124 124 119 116 116 113 107 106 107 99 85 73 64 58 49 45 42 32 27 23 16 9
211 223 247 247 240 246 222 259 193 234 158 146 154 167 174 173 169 161 160 162 164 163 160 156 150 145 138 133 130 128 126 121 113 108 110 110 108 101 85 67 55 43 39 36 34 26 17 359 357
177 206 272 245 216 213 160 262 227 210 165 169 177 178 181 184 176 174 174 171 169 165 160 158 154 144 140 136 134 130 130 124 116 114 112 111 110 106 95 72 46 28 31 35 31 21 17 353 342
143 170 229 245 196 188 161 239 246 204 177 190 194 189 187 192 189 184 176 169 168 161 160 162 157 148 144 137 132 128 126 122 121 119 112 112 112 109 96 74 41 29 36 33 13 2 355 340 329
176 197 211 243 203 175 181 233 247 205 183 195 198 196 193 193 195 189 178 172 169 166 162 160 153 152 147 136 127 123 120 118 122 119 114 114 111 108 101 83 47 43 41 20 355 358 343 328 324
193 192 196 210 213 176 199 233 246 225 194 197 198 196 192 194 201 188 178 170 166 163 159 157 153 151 142 129 113 104 99 103 114 118 120 118 111 104 97 80 48 47 37 12 357 341 336 317 312
170 176 200 220 217 182 209 230 240 234 211 205 204 200 198 204 200 181 172 163 157 156 157 159 156 156 148 144 143 140 145 141 122 117 121 118 108 98 92 68 43 39 33 356 348 340 337 334 329
198 196 215 255 235 191 217 244 253 238 220 209 202 203 201 195 180 176 168 162 163 163 162 162 162 160 160 161 155 146 143 142 149 106 101 109 99 91 90 78 51 30 21 1 351 351 338 333 354
220 207 199 203 350 17 152 283 254 250 225 219 212 203 195 188 184 179 171 170 166 166 169 168 167 162 159 149 128 110 83 69 65 69 61 66 92 91 96 91 68 20 26 315 313 311 325 317 325
221 215 194 183 159 236 172 247 263 235 235 223 220 207 198 192 184 179 174 172 174 176 171 164 163 160 156 150 148 149 150 159 190 188 193 357 85 87 83 76 56 352 334 298 295 306 287 280 303
196 178 179 185 171 199 197 201 269 231 228 229 221 210 200 190 182 181 180 178 176 171 165 161 155 155 154 154 156 154 152 159 146 129 129 335 348 11 16 33 25 316 307 295 299 302 292 274 268
147 96 65 58 103 227 210 190 255 224 212 214 217 207 196 186 179 178 176 167 161 157 154 154 153 154 155 154 155 157 158 151 141 150 172 246 304 310 316 327 322 307 303 295 288 283 283 278 275
147 129 103 88 217 238 204 196 243 241 216 203 199 199 191 182 171 165 163 162 159 156 157 156 155 155 156 155 159 164 165 162 168 178 188 204 259 288 280 310 300 297 296 295 295 290 284 277 278
181 158 165 182 203 246 192 217 252 254 233 201 187 177 165 165 168 166 168 166 163 160 158 157 158 156 156 158 164 163 162 166 176 185 192 206 226 244 253 276 288 294 299 305 298 293 285 287 279
160 186 168 141 150 184 235 258 293 268 214 159 151 147 161 165 165 163 161 161 159 159 160 161 158 154 158 161 157 157 161 168 178 188 192 213 232 250 260 273 281 289 294 295 297 293 291 292 281
165 154 128 144 162 210 239 235 226 218 210 192 169 161 155 151 151 151 152 152 153 154 152 150 151 155 156 153 159 165 173 180 178 177 201 223 236 249 253 268 278 288 294 294 294 292 294 298 292
150 158 155 155 170 168 205 249 225 209 201 187 184 166 152 143 147 147 142 138 133 130 135 139 144 141 144 149 149 145 163 169 170 192 215 225 237 246 250 260 272 281 286 289 290 290 292 294 298
175 169 154 168 210 186 177 254 318 189 153 153 158 151 139 136 129 127 128 123 122 127 134 136 139 143 153 152 147 149 152 152 180 220 234 231 238 247 252 262 272 279 286 286 283 288 292 290 293
Height
1498 1500 1503 1505 1509 1519 1517 1507 1497 1493 1492 1491 1491 1491 1494 1499 1503 1511 1509 1509 1512 1514 1517 1519 1521 1523 1524 1525 1526 1527 1528 1529 1529 1530 1530 1531 1531 1532 1532 1532 1533 1533 1533 1533 1533 1533 1533 1532 1532
1498 1501 1504 1505 1513 1522 1515 1501 1495 1490 1490 1490 1491 1493 1495 1499 1501 1504 1506 1509 1512 1515 1517 1519 1521 1523 1524 1525 1526 1527 1528 1529 1530 1530 1531 1531 1532 1532 1532 1533 1533 1533 1533 1533 1533 1533 1533 1532 1532
1498 1500 1503 1506 1513 1515 1505 1494 1490 1487 1488 1489 1491 1494 1497 1500 1502 1503 1506 1509 1512 1515 1517 1519 1521 1523 1524 1525 1526 1527 1528 1529 1530 1530 1531 1531 1532 1532 1532 1533 1533 1533 1533 1533 1533 1533 1532 1532 1532
1498 1501 1503 1508 1508 1502 1495 1489 1487 1486 1487 1488 1490 1496 1499 1502 1503 1504 1507 1510 1512 1515 1517 1519 1521 1523 1524 1525 1526 1527 1528 1529 1530 1530 1531 1532 1532 1532 1532 1533 1533 1533 1533 1533 1533 1532 1532 1532 1532
1496 1498 1504 1508 1503 1495 1489 1486 1486 1486 1486 1488 1490 1496 1500 1502 1503 1505 1508 1510 1513 1515 1517 1519 1521 1523 1524 1525 1526 1527 1528 1529 1530 1530 1531 1531 1532 1532 1532 1533 1533 1533 1533 1532 1532 1532 1532 1531 1531
1495 1497 1507 1507 1499 1491 1486 1484 1486 1486 1487 1488 1490 1495 1501 1503 1503 1506 1508 1511 1513 1515 1517 1519 1521 1523 1524 1525 1526 1527 1528 1529 1530 1530 1531 1531 1532 1532 1532 1532 1532 1532 1532 1532 1532 1531 1531 1531 1530
1494 1497 1501 1499 1495 1491 1485 1483 1484 1485 1486 1488 1488 1495 1500 1503 1504 1506 1509 1511 1513 1515 1517 1519 1521 1522 1524 1525 1526 1527 1528 1529 1529 1530 1531 1531 1531 1531 1531 1531 1531 1531 1531 1531 1531 1531 1530 1530 1529
1491 1494 1495 1494 1492 1488 1482 1482 1482 1482 1485 1487 1488 1491 1497 1500 1503 1506 1509 1511 1513 1515 1517 1519 1520 1522 1523 1525 1526 1527 1528 1528 1529 1530 1530 1531 1531 1531 1531 1531 1531 1531 1530 1530 1530 1530 1529 1529 1528
1489 1495 1495 1489 1487 1483 1480 1480 1481 1482 1483 1485 1487 1489 1492 1497 1501 1505 1508 1510 1513 1515 1516 1518 1520 1521 1523 1524 1525 1526 1527 1528 1529 1529 1530 1530 1530 1530 1530 1530 1530 1530 1530 1529 1529 1529 1528 1528 1527
1486 1492 1487 1481 1480 1479 1479 1479 1480 1482 1483 1485 1486 1489 1492 1496 1499 1502 1505 1507 1510 1513 1515 1517 1519 1521 1522 1523 1525 1526 1526 1527 1528 1529 1529 1529 1529 1530 1530 1529 1529 1529 1529 1529 1528 1528 1527 1527 1526
1482 1484 1481 1479 1478 1478 1478 1479 1479 1480 1483 1483 1484 1487 1491 1495 1498 1501 1503 1506 1509 1512 1514 1516 1518 1520 1521 1523 1524 1525 1526 1527 1527 1528 1528 1529 1529 1529 1529 1529 1529 1528 1528 1528 1527 1527 1526 1525 1525
1480 1478 1478 1477 1477 1477 1478 1478 1479 1479 1480 1481 1483 1485 1489 1493 1496 1499 1502 1505 1508 1510 1512 1515 1517 1519 1521 1522 1523 1524 1525 1526 1527 1527 1528 1528 1528 1528 1528 1528 1528 1527 1527 1526 1526 1525 1525 1524 1523
1477 1476 1476 1476 1477 1477 1478 1478 1478 1478 1480 1481 1483 1486 1488 1491 1495 1498 1501 1504 1506 1509 1511 1513 1515 1517 1519 1521 1522 1523 1524 1525 1526 1526 1527 1527 1527 1527 1527 1527 1527 1526 1526 1525 1524 1524 1523 1522 1521
1474 1475 1475 1475 1476 1477 1478 1478 1478 1476 1478 1480 1483 1485 1488 1490 1493 1496 1499 1502 1504 1507 1510 1512 1514 1516 1518 1520 1521 1522 1523 1524 1525 1526 1526 1526 1527 1526 1526 1526 1526 1525 1525 1524 1523 1522 1521 1520 1519
1472 1475 1475 1474 1474 1475 1477 1479 1475 1475 1477 1479 1481 1484 1487 1489 1492 1494 1497 1499 1502 1505 1508 1510 1513 1515 1517 1518 1520 1521 1522 1523 1524 1525 1525 1525 1525 1525 1525 1525 1524 1524 1523 1523 1522 1521 1520 1518 1517
1472 1476 1479 1473 1472 1473 1479 1480 1472 1473 1475 1477 1479 1482 1484 1487 1489 1492 1495 1498 1500 1503 1506 1509 1511 1513 1515 1517 1519 1520 1521 1522 1523 1523 1524 1524 1524 1524 1524 1523 1523 1522 1522 1521 1520 1518 1517 1516 1514
1474 1479 1478 1474 1470 1471 1475 1476 1469 1470 1472 1473 1476 1478 1481 1484 1487 1489 1492 1495 1498 1501 1504 1506 1509 1511 1514 1515 1517 1519 1520 1521 1522 1522 1522 1523 1523 1523 1522 1522 1521 1521 1520 1519 1518 1516 1515 1513 1511
1475 1476 1474 1473 1468 1470 1473 1472 1468 1468 1469 1470 1472 1475 1477 1480 1482 1486 1489 1493 1496 1499 1502 1504 1507 1509 1512 1513 1515 1517 1518 1519 1520 1521 1521 1521 1521 1521 1520 1520 1519 1519 1518 1517 1515 1514 1512 1510 1508
1466 1469 1471 1469 1465 1469 1470 1469 1467 1466 1467 1468 1469 1471 1473 1476 1480 1483 1486 1490 1493 1496 1499 1501 1504 1506 1509 1511 1512 1514 1515 1517 1518 1519 1519 1519 1519 1519 1518 1518 1517 1517 1515 1514 1513 1511 1509 1507 1505
1464 1467 1469 1467 1465 1467 1469 1468 1465 1464 1464 1464 1465 1467 1469 1472 1476 1479 1482 1485 1488 1492 1495 1498 1501 1504 1506 1508 1510 1512 1514 1515 1516 1517 1517 1517 1517 1517 1516 1516 1515 1514 1513 1512 1510 1509 1506 1505 1503
1463 1466 1467 1467 1466 1466 1469 1470 1466 1461 1460 1461 1461 1462 1465 1467 1471 1474 1478 1481 1485 1488 1491 1495 1498 1501 1504 1506 1509 1510 1512 1513 1514 1514 1515 1515 1515 1515 1514 1514 1513 1512 1510 1509 1508 1506 1504 1502 1501
1461 1459 1462 1465 1471 1476 1473 1480 1466 1460 1459 1458 1458 1458 1460 1463 1467 1470 1473 1477 1481 1484 1488 1492 1495 1498 1501 1503 1505 1507 1508 1509 1510 1512 1512 1513 1513 1513 1512 1511 1510 1509 1508 1507 1505 1504 1502 1500 1498
1455 1455 1460 1464 1470 1476 1474 1479 1467 1459 1458 1455 1454 1454 1455 1459 1462 1465 1469 1473 1477 1481 1485 1488 1492 1495 1498 1501 1503 1504 1506 1507 1509 1509 1510 1510 1510 1510 1509 1508 1507 1506 1505 1504 1503 1501 1499 1498 1496
1452 1458 1463 1469 1473 1478 1472 1476 1467 1458 1451 1450 1450 1450 1451 1455 1459 1462 1466 1470 1474 1478 1482 1485 1489 1492 1495 1498 1500 1502 1503 1505 1506 1506 1507 1507 1507 1506 1506 1505 1504 1503 1502 1501 1499 1498 1496 1494 1492
1451 1462 1477 1480 1483 1477 1467 1468 1459 1449 1445 1444 1445 1446 1448 1451 1455 1459 1462 1466 1470 1474 1478 1482 1485 1489 1492 1495 1497 1499 1501 1502 1503 1503 1503 1503 1503 1503 1502 1502 1501 1500 1498 1497 1496 1494 1492 1491 1489
1449 1455 1469 1475 1478 1473 1466 1466 1454 1445 1442 1441 1442 1443 1446 1449 1452 1455 1459 1463 1466 1470 1474 1478 1482 1485 1489 1491 1494 1496 1498 1500 1500 1501 1501 1500 1500 1500 1499 1498 1497 1496 1495 1493 1492 1490 1488 1486 1484
1448 1452 1454 1466 1471 1471 1468 1460 1450 1444 1443 1442 1441 1443 1444 1447 1450 1453 1456 1460 1464 1467 1471 1475 1479 1482 1485 1488 1491 1493 1495 1496 1497 1498 1498 1498 1497 1497 1496 1495 1494 1492 1491 1490 1488 1486 1484 1482 1480
1441 1445 1456 1464 1468 1465 1460 1457 1452 1446 1444 1442 1442 1443 1444 1446 1449 1451 1454 1458 1461 1465 1469 1473 1477 1479 1482 1485 1488 1490 1491 1493 1494 1495 1495 1494 1494 1493 1492 1491 1490 1488 1487 1485 1484 1482 1480 1478 1475
1442 1445 1449 1457 1461 1462 1462 1456 1442 1442 1441 1442 1442 1443 1444 1445 1448 1450 1453 1457 1460 1464 1467 1471 1474 1477 1480 1482 1485 1486 1488 1490 1491 1491 1491 1491 1490 1489 1488 1487 1486 1484 1483 1481 1479 1477 1475 1473 1471
1437 1440 1446 1454 1460 1460 1459 1455 1439 1440 1440 1441 1442 1444 1445 1447 1449 1451 1454 1457 1460 1463 1466 1469 1472 1475 1477 1480 1482 1483 1485 1486 1487 1487 1488 1487 1486 1486 1484 1483 1481 1480 1478 1476 1474 1472 1470 1468 1466